MDT,Max TemperatureF,Mean TemperatureF,Min TemperatureF,Max Dew PointF,MeanDew PointF,Min DewpointF,Max Humidity, Mean Humidity, Min Humidity, Max Sea Level PressureIn, Mean Sea Level PressureIn, Min Sea Level PressureIn, Max VisibilityMiles, Mean VisibilityMiles, Min VisibilityMiles, Max Wind SpeedMPH, Mean Wind SpeedMPH, Max Gust SpeedMPH,PrecipitationIn, CloudCover, Events, WindDirDegrees
2013-8-1,77,66,55,58,47,39,90,61,31,30.24,30.04,29.96,10,10,10,24,4,28,0.02,3,Rain-Thunderstorm,201
2013-8-2,89,71,53,56,50,44,93,57,21,30.08,29.97,29.87,10,10,10,23,6,31,T,1,Rain,262
2013-8-3,89,75,61,54,49,45,60,41,22,30.17,29.99,29.89,10,10,6,25,7,30,0.02,1,Rain-Thunderstorm,136
2013-8-4,89,73,56,53,48,45,72,49,26,30.23,30.06,29.95,10,10,10,28,8,38,T,1,Thunderstorm,133
2013-8-5,88,74,59,52,48,43,72,47,22,30.15,30.04,29.92,10,10,10,24,5,31,0.00,2,Thunderstorm,129
2013-8-6,83,68,53,51,47,41,77,55,33,30.18,30.02,29.94,10,9,2,24,6,38,T,2,Rain-Thunderstorm,109
2013-8-7,82,69,55,49,44,37,72,48,23,30.06,29.95,29.85,10,10,10,23,4,29,0.00,0,,71
2013-8-8,85,71,57,50,45,37,64,42,19,30.17,29.97,29.84,10,10,10,29,6,33,T,2,Rain,159
2013-8-9,84,69,53,48,43,37,77,52,26,30.18,30.04,29.95,10,10,10,25,6,32,T,1,Rain-Thunderstorm,68
2013-8-10,87,69,51,46,41,34,66,41,16,30.26,30.10,30.00,10,10,10,38,11,47,0.00,1,Thunderstorm,151
2013-8-11,87,67,47,45,40,34,77,47,16,30.22,30.09,29.98,10,10,10,21,5,25,0.00,0,Thunderstorm,24
2013-8-12,84,68,51,50,41,35,64,41,18,30.26,30.07,29.97,10,10,10,17,5,25,0.02,2,Rain-Thunderstorm,72
2013-8-13,85,67,49,48,42,35,80,49,18,30.26,30.09,30.00,10,10,10,41,7,51,T,0,Thunderstorm,328
2013-8-14,86,68,49,43,36,28,66,39,12,30.19,30.06,29.96,10,10,10,32,5,40,0.00,0,Thunderstorm,320
2013-8-15,93,71,49,39,33,27,56,33,10,30.10,30.02,29.94,10,10,10,30,4,37,0.00,0,,148
2013-8-16,95,73,50,37,28,20,47,27,7,30.12,30.00,29.91,10,10,10,14,5,16,0.00,0,,166
2013-8-17,95,74,52,44,34,27,41,26,11,30.08,29.97,29.87,10,10,10,29,7,35,0.00,0,,180
2013-8-18,93,76,58,47,43,37,60,38,15,30.15,30.00,29.88,10,10,10,31,5,37,T,0,Thunderstorm,40
2013-8-19,95,75,55,46,41,34,66,39,12,30.09,29.96,29.83,10,10,10,13,4,16,0.00,0,,353
2013-8-20,90,74,58,57,47,38,84,53,21,30.23,29.96,29.85,10,10,10,32,6,40,0.04,2,Rain-Thunderstorm,83
2013-8-21,92,73,54,56,49,41,87,53,18,30.10,29.99,29.88,10,10,10,22,5,26,0.00,0,,194
2013-8-22,90,76,62,51,47,41,60,41,21,30.06,29.97,29.85,10,10,10,17,4,24,T,2,,347
2013-8-23,87,73,58,56,51,48,73,50,27,30.11,29.95,29.79,10,10,4,58,7,69,T,2,Thunderstorm,76
2013-8-24,85,71,57,54,48,41,86,55,24,30.03,29.96,29.90,10,10,10,21,5,25,0.00,2,,114
2013-8-25,76,69,61,59,55,47,97,71,44,30.30,30.11,29.99,10,10,2,24,7,29,0.17,6,Rain,275
2013-8-26,80,70,59,61,57,51,97,68,39,30.33,30.18,30.02,10,10,5,18,4,22,0.03,5,Rain,261
2013-8-27,89,72,55,56,52,46,93,58,23,30.11,30.01,29.88,10,10,10,26,6,33,T,1,,252
2013-8-28,92,75,57,53,47,37,80,48,15,30.04,29.96,29.86,10,10,4,22,6,26,0.00,0,,218
2013-8-29,95,76,57,48,44,33,67,40,12,30.10,30.01,29.91,10,10,10,18,6,24,0.00,0,,196
2013-8-30,85,75,64,52,48,44,56,42,27,30.20,30.03,29.95,10,10,10,22,7,26,T,2,Rain-Thunderstorm,108
2013-8-31,89,76,63,59,50,41,73,47,20,30.19,30.01,29.83,10,10,10,16,5,23,0.03,4,Rain-Thunderstorm,77